Time,TemperatureF,DewpointF,PressureIn,WindDirection,WindDirectionDegrees,WindSpeedMPH,WindSpeedGustMPH,Humidity,HourlyPrecipIn,Conditions,Clouds,dailyrainin,SolarRadiationWatts/m^2,SoftwareType,DateUTC
2013-07-25 00:00:00,57.0,48.1,30.14,West,270,0.0,0.0,72,0.00,CLR,,0.00,0.0,WeatherDisplay:10.37,2013-07-24 14:00:00,
2013-07-25 00:05:00,57.0,48.4,30.13,West,270,0.0,0.0,73,0.00,CLR,,0.00,0.0,WeatherDisplay:10.37,2013-07-24 14:05:00,
2013-07-25 00:10:00,57.0,49.2,30.13,West,270,0.0,0.0,75,0.00,CLR,,0.00,0.0,WeatherDisplay:10.37,2013-07-24 14:10:00,
2013-07-25 00:15:00,57.0,49.2,30.14,West,270,0.0,0.0,75,0.00,CLR,,0.00,0.0,WeatherDisplay:10.37,2013-07-24 14:15:00,
2013-07-25 00:20:00,56.9,49.1,30.13,West,270,0.0,0.0,75,0.00,CLR,,0.00,0.0,WeatherDisplay:10.37,2013-07-24 14:20:00,
2013-07-25 00:25:00,56.5,49.0,30.13,West,270,0.0,0.0,76,0.00,CLR,,0.00,0.0,WeatherDisplay:10.37,2013-07-24 14:25:00,
2013-07-25 00:30:00,56.5,49.0,30.13,West,270,0.0,0.0,76,0.00,CLR,,0.00,0.0,WeatherDisplay:10.37,2013-07-24 14:30:00,
2013-07-25 00:35:00,56.5,49.4,30.14,West,270,0.0,0.0,77,0.00,CLR,,0.00,0.0,WeatherDisplay:10.37,2013-07-24 14:35:00,
2013-07-25 00:40:00,56.6,49.2,30.13,West,270,0.0,0.0,76,0.00,CLR,,0.00,0.0,WeatherDisplay:10.37,2013-07-24 14:40:00,
2013-07-25 00:45:00,56.7,49.3,30.13,West,270,0.0,0.0,76,0.00,CLR,,0.00,0.0,WeatherDisplay:10.37,2013-07-24 14:45:00,
2013-07-25 00:50:00,56.8,49.4,30.13,West,270,0.0,0.0,76,0.00,CLR,,0.00,0.0,WeatherDisplay:10.37,2013-07-24 14:50:00,
2013-07-25 00:55:00,56.5,49.4,30.13,West,270,0.0,0.0,77,0.00,CLR,,0.00,0.0,WeatherDisplay:10.37,2013-07-24 14:55:00,
2013-07-25 01:00:00,56.3,49.2,30.13,West,270,0.0,0.0,77,0.00,CLR,,0.00,0.0,WeatherDisplay:10.37,2013-07-24 15:00:00,
2013-07-25 01:05:00,55.9,49.2,30.13,West,270,0.0,0.0,78,0.00,CLR,,0.00,0.0,WeatherDisplay:10.37,2013-07-24 15:05:00,
2013-07-25 01:10:00,55.6,48.8,30.12,West,270,0.0,0.0,78,0.00,CLR,,0.00,0.0,WeatherDisplay:10.37,2013-07-24 15:10:00,
2013-07-25 01:20:00,55.0,49.3,30.12,West,270,0.0,0.0,81,0.00,CLR,,0.00,0.0,WeatherDisplay:10.37,2013-07-24 15:20:00,
2013-07-25 01:25:00,54.9,49.1,30.12,West,270,0.0,0.0,81,0.00,CLR,,0.00,0.0,WeatherDisplay:10.37,2013-07-24 15:25:00,
2013-07-25 01:30:00,54.7,49.3,30.12,West,270,0.0,0.0,82,0.00,CLR,,0.00,0.0,WeatherDisplay:10.37,2013-07-24 15:30:00,
2013-07-25 01:35:00,54.6,49.6,30.12,West,270,0.0,1.0,83,0.00,CLR,,0.00,0.0,WeatherDisplay:10.37,2013-07-24 15:35:00,
2013-07-25 01:40:00,54.3,49.3,30.12,West,270,0.0,0.0,83,0.00,CLR,,0.00,0.0,WeatherDisplay:10.37,2013-07-24 15:40:00,
2013-07-25 01:45:00,54.3,48.9,30.11,West,270,0.0,0.0,82,0.00,CLR,,0.00,0.0,WeatherDisplay:10.37,2013-07-24 15:45:00,
2013-07-25 01:50:00,54.7,49.6,30.11,West,270,0.0,0.0,83,0.00,CLR,,0.00,0.0,WeatherDisplay:10.37,2013-07-24 15:50:00,
2013-07-25 01:55:00,54.5,49.8,30.11,West,270,0.0,0.0,84,0.00,CLR,,0.00,0.0,WeatherDisplay:10.37,2013-07-24 15:55:00,
2013-07-25 02:00:00,54.6,49.5,30.11,West,270,0.0,0.0,83,0.00,CLR,,0.00,0.0,WeatherDisplay:10.37,2013-07-24 16:00:00,
2013-07-25 02:10:00,54.5,49.1,30.11,West,270,0.0,0.0,82,0.00,CLR,,0.00,0.0,WeatherDisplay:10.37,2013-07-24 16:10:00,
2013-07-25 02:15:00,54.5,49.1,30.11,West,270,0.0,0.0,82,0.00,CLR,,0.00,0.0,WeatherDisplay:10.37,2013-07-24 16:15:00,
2013-07-25 02:20:00,54.5,48.8,30.11,West,270,0.0,0.0,81,0.00,CLR,,0.00,0.0,WeatherDisplay:10.37,2013-07-24 16:20:00,
2013-07-25 02:25:00,54.7,49.0,30.11,West,270,0.0,0.0,81,0.00,CLR,,0.00,0.0,WeatherDisplay:10.37,2013-07-24 16:25:00,
2013-07-25 02:30:00,54.9,49.1,30.11,West,270,0.0,0.0,81,0.00,CLR,,0.00,0.0,WeatherDisplay:10.37,2013-07-24 16:30:00,
2013-07-25 02:35:00,54.9,49.1,30.11,West,270,0.0,0.0,81,0.00,CLR,,0.00,0.0,WeatherDisplay:10.37,2013-07-24 16:35:00,
2013-07-25 02:40:00,55.2,49.5,30.10,West,270,0.0,0.0,81,0.00,CLR,,0.00,0.0,WeatherDisplay:10.37,2013-07-24 16:40:00,
2013-07-25 02:45:00,55.4,50.0,30.10,West,270,0.0,0.0,82,0.00,CLR,,0.00,0.0,WeatherDisplay:10.37,2013-07-24 16:45:00,
2013-07-25 02:50:00,55.4,50.3,30.10,West,270,0.0,0.0,83,0.00,CLR,,0.00,0.0,WeatherDisplay:10.37,2013-07-24 16:50:00,
2013-07-25 02:55:00,55.2,50.1,30.10,West,270,0.0,0.0,83,0.00,CLR,,0.00,0.0,WeatherDisplay:10.37,2013-07-24 16:55:00,
2013-07-25 03:05:00,54.7,49.6,30.10,West,270,0.0,0.0,83,0.00,CLR,,0.00,0.0,WeatherDisplay:10.37,2013-07-24 17:05:00,
2013-07-25 03:10:00,54.3,49.3,30.10,West,270,0.0,0.0,83,0.00,CLR,,0.00,0.0,WeatherDisplay:10.37,2013-07-24 17:10:00,
2013-07-25 03:15:00,54.1,49.0,30.10,West,270,0.0,0.0,83,0.00,CLR,,0.00,0.0,WeatherDisplay:10.37,2013-07-24 17:15:00,
2013-07-25 03:20:00,54.3,49.6,30.09,West,270,0.0,0.0,84,0.00,CLR,,0.00,0.0,WeatherDisplay:10.37,2013-07-24 17:20:00,
2013-07-25 03:25:00,53.9,48.9,30.09,West,270,0.0,0.0,83,0.00,CLR,,0.00,0.0,WeatherDisplay:10.37,2013-07-24 17:25:00,
2013-07-25 03:30:00,54.0,48.9,30.09,West,270,0.0,0.0,83,0.00,CLR,,0.00,0.0,WeatherDisplay:10.37,2013-07-24 17:30:00,
2013-07-25 03:35:00,53.7,49.0,30.09,West,270,0.0,0.0,84,0.00,CLR,,0.00,0.0,WeatherDisplay:10.37,2013-07-24 17:35:00,
2013-07-25 03:40:00,53.5,49.4,30.09,West,270,0.0,0.0,86,0.00,CLR,,0.00,0.0,WeatherDisplay:10.37,2013-07-24 17:40:00,
2013-07-25 03:45:00,53.1,49.0,30.08,West,270,0.0,0.0,86,0.00,CLR,,0.00,0.0,WeatherDisplay:10.37,2013-07-24 17:45:00,
2013-07-25 03:50:00,52.9,48.9,30.09,West,270,0.0,0.0,86,0.00,CLR,,0.00,0.0,WeatherDisplay:10.37,2013-07-24 17:50:00,
2013-07-25 03:55:00,52.9,49.2,30.09,West,270,0.0,0.0,87,0.00,CLR,,0.00,0.0,WeatherDisplay:10.37,2013-07-24 17:55:00,
2013-07-25 04:00:00,52.9,49.5,30.09,West,270,0.0,0.0,88,0.00,CLR,,0.00,0.0,WeatherDisplay:10.37,2013-07-24 18:00:00,
2013-07-25 04:05:00,52.9,49.4,30.09,West,270,0.0,0.0,88,0.00,CLR,,0.00,0.0,WeatherDisplay:10.37,2013-07-24 18:05:00,
2013-07-25 04:10:00,52.7,49.5,30.09,West,270,0.0,0.0,89,0.00,CLR,,0.00,0.0,WeatherDisplay:10.37,2013-07-24 18:10:00,
2013-07-25 04:15:00,52.9,49.7,30.09,West,270,0.0,0.0,89,0.00,CLR,,0.00,0.0,WeatherDisplay:10.37,2013-07-24 18:15:00,
2013-07-25 04:20:00,52.6,49.4,30.09,West,270,0.0,0.0,89,0.00,CLR,,0.00,0.0,WeatherDisplay:10.37,2013-07-24 18:20:00,
2013-07-25 04:25:00,52.3,49.2,30.09,West,270,0.0,0.0,89,0.00,CLR,,0.00,0.0,WeatherDisplay:10.37,2013-07-24 18:25:00,
2013-07-25 04:30:00,52.2,49.3,30.09,West,270,0.0,0.0,90,0.00,CLR,,0.00,0.0,WeatherDisplay:10.37,2013-07-24 18:30:00,
2013-07-25 04:35:00,52.4,49.9,30.09,West,270,0.0,0.0,91,0.00,CLR,,0.00,0.0,WeatherDisplay:10.37,2013-07-24 18:35:00,
2013-07-25 04:40:00,52.3,49.4,30.09,West,270,0.0,0.0,90,0.00,CLR,,0.00,0.0,WeatherDisplay:10.37,2013-07-24 18:40:00,
2013-07-25 04:45:00,52.0,49.1,30.09,West,270,0.0,0.0,90,0.00,CLR,,0.00,0.0,WeatherDisplay:10.37,2013-07-24 18:45:00,
2013-07-25 04:50:00,52.0,49.1,30.09,West,270,0.0,0.0,90,0.00,CLR,,0.00,0.0,WeatherDisplay:10.37,2013-07-24 18:50:00,
2013-07-25 04:55:00,52.0,48.8,30.09,West,270,0.0,0.0,89,0.00,CLR,,0.00,0.0,WeatherDisplay:10.37,2013-07-24 18:55:00,
2013-07-25 05:00:00,51.8,49.0,30.09,West,270,0.0,0.0,90,0.00,CLR,,0.00,0.0,WeatherDisplay:10.37,2013-07-24 19:00:00,
2013-07-25 05:05:00,51.6,49.1,30.09,West,270,0.0,0.0,91,0.00,CLR,,0.00,0.0,WeatherDisplay:10.37,2013-07-24 19:05:00,
2013-07-25 05:10:00,51.3,48.7,30.09,West,270,0.0,0.0,91,0.00,CLR,,0.00,0.0,WeatherDisplay:10.37,2013-07-24 19:10:00,
2013-07-25 05:15:00,51.1,48.5,30.09,West,270,0.0,0.0,91,0.00,CLR,,0.00,0.0,WeatherDisplay:10.37,2013-07-24 19:15:00,
2013-07-25 05:20:00,51.0,48.8,30.09,West,270,0.0,0.0,92,0.00,CLR,,0.00,0.0,WeatherDisplay:10.37,2013-07-24 19:20:00,
2013-07-25 05:25:00,50.5,48.3,30.09,West,270,0.0,0.0,92,0.00,CLR,,0.00,0.0,WeatherDisplay:10.37,2013-07-24 19:25:00,
2013-07-25 05:30:00,50.4,48.4,30.09,West,270,0.0,0.0,93,0.00,CLR,,0.00,0.0,WeatherDisplay:10.37,2013-07-24 19:30:00,
2013-07-25 05:35:00,49.9,48.2,30.10,West,270,0.0,0.0,94,0.00,CLR,,0.00,0.0,WeatherDisplay:10.37,2013-07-24 19:35:00,
2013-07-25 05:45:00,49.8,48.2,30.10,West,270,0.0,0.0,94,0.00,CLR,,0.00,0.0,WeatherDisplay:10.37,2013-07-24 19:45:00,
2013-07-25 05:50:00,49.3,48.0,30.10,West,270,0.0,0.0,95,0.00,CLR,,0.00,0.0,WeatherDisplay:10.37,2013-07-24 19:50:00,
2013-07-25 05:55:00,49.4,48.0,30.11,West,270,0.0,0.0,95,0.00,CLR,,0.00,0.0,WeatherDisplay:10.37,2013-07-24 19:55:00,
2013-07-25 06:00:00,49.5,48.1,30.11,West,270,0.0,0.0,95,0.00,CLR,,0.00,0.0,WeatherDisplay:10.37,2013-07-24 20:00:00,
2013-07-25 06:05:00,49.1,48.0,30.11,West,270,0.0,0.0,96,0.00,CLR,,0.00,0.0,WeatherDisplay:10.37,2013-07-24 20:05:00,
2013-07-25 06:10:00,48.9,47.8,30.11,West,270,0.0,0.0,96,0.00,CLR,,0.00,0.0,WeatherDisplay:10.37,2013-07-24 20:10:00,
2013-07-25 06:20:00,48.7,47.6,30.11,West,270,0.0,0.0,96,0.00,CLR,,0.00,0.0,WeatherDisplay:10.37,2013-07-24 20:20:00,
2013-07-25 06:25:00,48.6,47.6,30.11,West,270,0.0,0.0,96,0.00,CLR,,0.00,0.0,WeatherDisplay:10.37,2013-07-24 20:25:00,
2013-07-25 06:30:00,48.7,47.9,30.11,West,270,0.0,0.0,97,0.00,CLR,,0.00,0.0,WeatherDisplay:10.37,2013-07-24 20:30:00,
2013-07-25 06:35:00,48.7,47.9,30.11,West,270,0.0,0.0,97,0.00,CLR,,0.00,0.0,WeatherDisplay:10.37,2013-07-24 20:35:00,
2013-07-25 06:45:00,48.2,47.7,30.11,West,270,0.0,0.0,98,0.00,CLR,,0.00,1.1,WeatherDisplay:10.37,2013-07-24 20:45:00,
2013-07-25 06:50:00,48.2,47.7,30.11,West,270,0.0,0.0,98,0.00,CLR,,0.00,4.6,WeatherDisplay:10.37,2013-07-24 20:50:00,
2013-07-25 06:55:00,48.1,47.8,30.12,West,270,0.0,0.0,99,0.00,BKN,,0.00,11.8,WeatherDisplay:10.37,2013-07-24 20:55:00,
2013-07-25 07:00:00,48.4,47.8,30.12,West,270,0.0,0.0,98,0.00,BKN,,0.00,20.3,WeatherDisplay:10.37,2013-07-24 21:00:00,
2013-07-25 07:05:00,48.9,48.4,30.12,West,270,0.0,0.0,98,0.00,BKN,,0.00,30.2,WeatherDisplay:10.37,2013-07-24 21:05:00,
2013-07-25 07:10:00,49.9,49.1,30.12,West,270,0.0,0.0,97,0.00,BKN,,0.00,40.7,WeatherDisplay:10.37,2013-07-24 21:10:00,
2013-07-25 07:15:00,51.6,50.7,30.12,West,270,0.0,0.0,97,0.00,BKN,,0.00,33.2,WeatherDisplay:10.37,2013-07-24 21:15:00,
2013-07-25 07:20:00,52.7,51.3,30.12,West,270,0.0,0.0,95,0.00,SCT,,0.00,65.8,WeatherDisplay:10.37,2013-07-24 21:20:00,
2013-07-25 07:25:00,54.1,51.9,30.12,West,270,0.0,0.0,92,0.00,FEW,,0.00,80.0,WeatherDisplay:10.37,2013-07-24 21:25:00,
2013-07-25 07:30:00,56.0,53.1,30.13,West,270,0.0,0.0,90,0.00,CLR,,0.00,97.0,WeatherDisplay:10.37,2013-07-24 21:30:00,
2013-07-25 07:35:00,58.8,54.3,30.13,West,270,0.0,0.0,85,0.00,CLR,,0.00,86.0,WeatherDisplay:10.37,2013-07-24 21:35:00,
2013-07-25 07:40:00,59.9,52.3,30.13,West,270,0.0,0.0,76,0.00,CLR,,0.00,71.0,WeatherDisplay:10.37,2013-07-24 21:40:00,
2013-07-25 07:50:00,60.8,51.7,30.13,West,270,0.0,0.0,72,0.00,CLR,,0.00,40.0,WeatherDisplay:10.37,2013-07-24 21:50:00,
2013-07-25 07:55:00,62.4,52.5,30.13,West,270,0.0,2.0,70,0.00,CLR,,0.00,26.0,WeatherDisplay:10.37,2013-07-24 21:55:00,
2013-07-25 08:00:00,64.3,53.5,30.13,West,270,0.0,0.0,68,0.00,CLR,,0.00,12.0,WeatherDisplay:10.37,2013-07-24 22:00:00,
2013-07-25 08:05:00,65.3,53.2,30.13,West,270,0.0,0.0,65,0.00,OVC,,0.00,267.8,WeatherDisplay:10.37,2013-07-24 22:05:00,
2013-07-25 08:10:00,65.1,53.1,30.13,West,270,0.0,0.0,65,0.00,OVC,,0.00,304.4,WeatherDisplay:10.37,2013-07-24 22:10:00,
2013-07-25 08:15:00,65.3,52.8,30.13,West,270,0.0,0.0,64,0.00,OVC,,0.00,346.2,WeatherDisplay:10.37,2013-07-24 22:15:00,
2013-07-25 08:20:00,66.6,53.6,30.14,West,270,0.0,0.0,63,0.00,OVC,,0.00,370.1,WeatherDisplay:10.37,2013-07-24 22:20:00,
2013-07-25 08:25:00,66.9,53.4,30.14,West,270,1.0,3.0,62,0.00,OVC,,0.00,394.7,WeatherDisplay:10.37,2013-07-24 22:25:00,
2013-07-25 08:30:00,67.5,53.1,30.13,West,270,1.0,3.0,60,0.00,OVC,,0.00,419.6,WeatherDisplay:10.37,2013-07-24 22:30:00,
2013-07-25 08:35:00,67.3,51.5,30.14,West,270,1.0,6.0,57,0.00,OVC,,0.00,446.5,WeatherDisplay:10.37,2013-07-24 22:35:00,
2013-07-25 08:40:00,67.9,51.6,30.14,West,270,1.0,5.0,56,0.00,OVC,,0.00,471.8,WeatherDisplay:10.37,2013-07-24 22:40:00,
2013-07-25 08:45:00,68.0,51.2,30.15,West,270,2.0,6.0,55,0.00,OVC,,0.00,496.2,WeatherDisplay:10.37,2013-07-24 22:45:00,
2013-07-25 08:50:00,67.2,50.9,30.14,West,270,3.0,10.0,56,0.00,OVC,,0.00,519.1,WeatherDisplay:10.37,2013-07-24 22:50:00,
2013-07-25 08:55:00,66.5,50.8,30.14,West,270,5.0,6.0,57,0.00,OVC,,0.00,540.2,WeatherDisplay:10.37,2013-07-24 22:55:00,
2013-07-25 09:00:00,66.8,51.1,30.15,West,270,3.0,6.0,57,0.00,OVC,,0.00,564.3,WeatherDisplay:10.37,2013-07-24 23:00:00,
2013-07-25 09:05:00,68.1,51.3,30.15,West,270,1.0,6.0,55,0.00,OVC,,0.00,588.9,WeatherDisplay:10.37,2013-07-24 23:05:00,
2013-07-25 09:10:00,69.8,51.4,30.15,West,270,5.0,7.0,52,0.00,OVC,,0.00,614.1,WeatherDisplay:10.37,2013-07-24 23:10:00,
2013-07-25 09:15:00,68.0,50.2,30.15,West,270,1.0,8.0,53,0.00,OVC,,0.00,636.7,WeatherDisplay:10.37,2013-07-24 23:15:00,
2013-07-25 09:20:00,69.5,51.1,30.15,West,270,1.0,5.0,52,0.00,OVC,,0.00,661.9,WeatherDisplay:10.37,2013-07-24 23:20:00,
2013-07-25 09:25:00,68.6,49.8,30.15,West,270,6.0,8.0,51,0.00,OVC,,0.00,683.7,WeatherDisplay:10.37,2013-07-24 23:25:00,
2013-07-25 09:30:00,68.8,50.9,30.15,West,270,5.0,8.0,53,0.00,OVC,,0.00,705.2,WeatherDisplay:10.37,2013-07-24 23:30:00,
2013-07-25 09:35:00,70.1,51.6,30.15,West,270,2.0,6.0,52,0.00,OVC,,0.00,732.3,WeatherDisplay:10.37,2013-07-24 23:35:00,
2013-07-25 09:40:00,69.6,51.2,30.15,West,270,5.0,8.0,52,0.00,OVC,,0.00,756.1,WeatherDisplay:10.37,2013-07-24 23:40:00,
2013-07-25 09:45:00,70.8,52.3,30.15,West,270,2.0,6.0,52,0.00,OVC,,0.00,778.8,WeatherDisplay:10.37,2013-07-24 23:45:00,
2013-07-25 09:50:00,72.1,51.3,30.15,West,270,3.0,8.0,48,0.00,OVC,,0.00,803.7,WeatherDisplay:10.37,2013-07-24 23:50:00,
2013-07-25 09:55:00,70.4,50.3,30.15,West,270,5.0,8.0,49,0.00,OVC,,0.00,820.0,WeatherDisplay:10.37,2013-07-24 23:55:00,
2013-07-25 10:00:00,69.7,50.7,30.15,West,270,2.0,7.0,51,0.00,OVC,,0.00,842.6,WeatherDisplay:10.37,2013-07-25 00:00:00,
2013-07-25 10:05:00,71.1,51.5,30.15,West,270,1.0,7.0,50,0.00,OVC,,0.00,868.2,WeatherDisplay:10.37,2013-07-25 00:05:00,
2013-07-25 10:10:00,72.0,51.8,30.15,West,270,6.0,8.0,49,0.00,OVC,,0.00,897.3,WeatherDisplay:10.37,2013-07-25 00:10:00,
2013-07-25 10:15:00,70.6,51.6,30.15,West,270,1.0,7.0,51,0.00,OVC,,0.00,904.0,WeatherDisplay:10.37,2013-07-25 00:15:00,
2013-07-25 10:20:00,72.3,52.0,30.14,West,270,7.0,9.0,49,0.00,OVC,,0.00,944.5,WeatherDisplay:10.37,2013-07-25 00:20:00,
2013-07-25 10:25:00,70.4,52.0,30.14,West,270,2.0,11.0,52,0.00,OVC,,0.00,898.9,WeatherDisplay:10.37,2013-07-25 00:25:00,
2013-07-25 10:30:00,70.9,52.4,30.14,West,270,5.0,10.0,52,0.00,OVC,,0.00,825.9,WeatherDisplay:10.37,2013-07-25 00:30:00,
2013-07-25 10:35:00,70.9,52.4,30.14,West,270,1.0,6.0,52,0.00,OVC,,0.00,983.2,WeatherDisplay:10.37,2013-07-25 00:35:00,
2013-07-25 10:40:00,72.2,52.0,30.14,West,270,3.0,6.0,49,0.00,OVC,,0.00,1085.9,WeatherDisplay:10.37,2013-07-25 00:40:00,
2013-07-25 10:45:00,73.6,52.7,30.14,West,270,6.0,9.0,48,0.00,OVC,,0.00,1048.6,WeatherDisplay:10.37,2013-07-25 00:45:00,
2013-07-25 10:50:00,70.7,51.7,30.14,West,270,5.0,12.0,51,0.00,OVC,,0.00,405.2,WeatherDisplay:10.37,2013-07-25 00:50:00,
2013-07-25 10:55:00,70.1,52.7,30.14,West,270,7.0,10.0,54,0.00,OVC,,0.00,564.0,WeatherDisplay:10.37,2013-07-25 00:55:00,
2013-07-25 11:00:00,69.9,52.5,30.14,West,275,2.0,13.0,54,0.15,RA,,0.15,708.3,WeatherDisplay:10.37,2013-07-25 01:00:00,
2013-07-25 11:05:00,70.4,53.0,30.14,West,280,2.0,8.0,54,0.00,RA,,0.15,1025.3,WeatherDisplay:10.37,2013-07-25 01:05:00,
2013-07-25 11:10:00,70.8,53.4,30.14,West,270,7.0,11.0,54,0.00,OVC,,0.15,1163.7,WeatherDisplay:10.37,2013-07-25 01:10:00,
2013-07-25 11:15:00,71.9,53.3,30.14,West,270,3.0,8.0,52,0.00,OVC,,0.15,344.9,WeatherDisplay:10.37,2013-07-25 01:15:00,
2013-07-25 11:20:00,71.4,53.8,30.14,West,270,9.0,13.0,54,0.00,OVC,,0.15,1299.0,WeatherDisplay:10.37,2013-07-25 01:20:00,
2013-07-25 11:25:00,69.1,52.7,30.13,West,270,8.0,14.0,56,0.00,OVC,,0.15,1129.1,WeatherDisplay:10.37,2013-07-25 01:25:00,
2013-07-25 11:30:00,70.2,53.7,30.13,West,270,6.0,13.0,56,0.00,OVC,,0.15,1142.2,WeatherDisplay:10.37,2013-07-25 01:30:00,
2013-07-25 11:35:00,71.7,53.6,30.13,West,270,8.0,12.0,53,0.00,OVC,,0.15,1200.3,WeatherDisplay:10.37,2013-07-25 01:35:00,
2013-07-25 11:40:00,71.3,53.8,30.12,West,270,5.0,15.0,54,0.00,OVC,,0.15,1017.5,WeatherDisplay:10.37,2013-07-25 01:40:00,
2013-07-25 11:45:00,70.9,54.0,30.12,West,270,7.0,16.0,55,0.00,OVC,,0.15,1169.4,WeatherDisplay:10.37,2013-07-25 01:45:00,
2013-07-25 11:50:00,71.1,54.1,30.12,West,270,6.0,15.0,55,0.00,OVC,,0.15,1165.1,WeatherDisplay:10.37,2013-07-25 01:50:00,
2013-07-25 11:55:00,71.6,54.0,30.12,West,270,2.0,13.0,54,0.00,OVC,,0.15,1193.2,WeatherDisplay:10.37,2013-07-25 01:55:00,
2013-07-25 12:00:00,73.7,54.5,30.11,West,270,3.0,12.0,51,0.00,OVC,,0.15,592.5,WeatherDisplay:10.37,2013-07-25 02:00:00,
2013-07-25 12:05:00,73.8,54.0,30.11,West,270,8.0,13.0,50,0.00,OVC,,0.15,1235.4,WeatherDisplay:10.37,2013-07-25 02:05:00,
2013-07-25 12:10:00,73.3,54.6,30.11,West,270,7.0,11.0,52,0.00,OVC,,0.15,1226.2,WeatherDisplay:10.37,2013-07-25 02:10:00,
2013-07-25 12:15:00,73.1,54.4,30.11,West,270,5.0,11.0,52,0.00,OVC,,0.15,1246.3,WeatherDisplay:10.37,2013-07-25 02:15:00,
2013-07-25 12:20:00,73.4,54.2,30.11,West,270,5.0,7.0,51,0.00,OVC,,0.15,1328.5,WeatherDisplay:10.37,2013-07-25 02:20:00,
2013-07-25 12:25:00,74.7,54.2,30.10,West,270,3.0,8.0,49,0.00,OVC,,0.15,1313.1,WeatherDisplay:10.37,2013-07-25 02:25:00,
2013-07-25 12:30:00,73.7,53.9,30.11,West,270,8.0,15.0,50,0.00,OVC,,0.15,1281.4,WeatherDisplay:10.37,2013-07-25 02:30:00,
2013-07-25 12:35:00,73.9,54.0,30.10,West,270,6.0,11.0,50,0.00,OVC,,0.15,1297.9,WeatherDisplay:10.37,2013-07-25 02:35:00,
2013-07-25 12:40:00,75.0,55.1,30.10,West,270,12.0,15.0,50,0.00,OVC,,0.15,1267.4,WeatherDisplay:10.37,2013-07-25 02:40:00,
2013-07-25 12:45:00,72.5,53.9,30.10,West,270,5.0,13.0,52,0.00,OVC,,0.15,1215.3,WeatherDisplay:10.37,2013-07-25 02:45:00,
2013-07-25 12:50:00,73.8,54.5,30.10,West,270,5.0,8.0,51,0.00,OVC,,0.15,1234.9,WeatherDisplay:10.37,2013-07-25 02:50:00,
2013-07-25 12:55:00,75.0,54.5,30.10,West,270,10.0,14.0,49,0.00,OVC,,0.15,1235.1,WeatherDisplay:10.37,2013-07-25 02:55:00,
2013-07-25 13:00:00,72.7,54.0,30.10,West,270,5.0,15.0,52,0.00,OVC,,0.15,1212.1,WeatherDisplay:10.37,2013-07-25 03:00:00,
2013-07-25 13:05:00,74.5,54.7,30.09,West,270,7.0,13.0,50,0.00,OVC,,0.15,1207.7,WeatherDisplay:10.37,2013-07-25 03:05:00,
2013-07-25 13:10:00,72.8,54.1,30.09,West,270,5.0,15.0,52,0.00,OVC,,0.15,1216.7,WeatherDisplay:10.37,2013-07-25 03:10:00,
2013-07-25 13:15:00,74.4,54.5,30.09,West,270,7.0,13.0,50,0.00,OVC,,0.15,1197.8,WeatherDisplay:10.37,2013-07-25 03:15:00,
2013-07-25 13:20:00,75.2,54.2,30.09,West,270,3.0,13.0,48,0.00,OVC,,0.15,1201.7,WeatherDisplay:10.37,2013-07-25 03:20:00,
2013-07-25 13:25:00,74.3,54.5,30.09,West,270,8.0,13.0,50,0.00,OVC,,0.15,1142.2,WeatherDisplay:10.37,2013-07-25 03:25:00,
2013-07-25 13:35:00,74.4,54.0,30.09,West,270,3.0,10.0,49,0.00,OVC,,0.15,1189.8,WeatherDisplay:10.37,2013-07-25 03:35:00,
2013-07-25 13:45:00,74.6,54.2,30.08,West,270,7.0,13.0,49,0.00,OVC,,0.15,1190.6,WeatherDisplay:10.37,2013-07-25 03:45:00,
2013-07-25 13:50:00,74.7,53.7,30.08,West,270,8.0,12.0,48,0.00,OVC,,0.15,1203.7,WeatherDisplay:10.37,2013-07-25 03:50:00,
2013-07-25 13:55:00,73.8,52.9,30.08,West,270,5.0,17.0,48,0.00,OVC,,0.15,1010.8,WeatherDisplay:10.37,2013-07-25 03:55:00,
2013-07-25 14:00:00,74.6,54.2,30.08,West,270,12.0,16.0,49,0.00,OVC,,0.15,864.5,WeatherDisplay:10.37,2013-07-25 04:00:00,
2013-07-25 14:05:00,73.4,53.6,30.08,West,270,6.0,15.0,50,0.00,OVC,,0.15,1175.0,WeatherDisplay:10.37,2013-07-25 04:05:00,
2013-07-25 14:10:00,75.2,53.6,30.07,West,270,5.0,11.0,47,0.00,OVC,,0.15,1182.3,WeatherDisplay:10.37,2013-07-25 04:10:00,
2013-07-25 14:15:00,74.8,53.8,30.08,West,270,6.0,13.0,48,0.00,OVC,,0.15,1182.4,WeatherDisplay:10.37,2013-07-25 04:15:00,
2013-07-25 14:20:00,74.6,53.6,30.07,West,270,5.0,13.0,48,0.00,OVC,,0.15,272.4,WeatherDisplay:10.37,2013-07-25 04:20:00,
2013-07-25 14:25:00,73.1,53.3,30.07,West,270,8.0,11.0,50,0.00,OVC,,0.15,1148.7,WeatherDisplay:10.37,2013-07-25 04:25:00,
2013-07-25 14:30:00,74.5,54.7,30.07,West,270,5.0,13.0,50,0.00,OVC,,0.15,824.4,WeatherDisplay:10.37,2013-07-25 04:30:00,
2013-07-25 14:35:00,74.1,54.2,30.07,West,270,8.0,15.0,50,0.00,OVC,,0.15,703.9,WeatherDisplay:10.37,2013-07-25 04:35:00,
2013-07-25 14:40:00,74.5,54.6,30.07,West,270,10.0,14.0,50,0.00,OVC,,0.15,907.2,WeatherDisplay:10.37,2013-07-25 04:40:00,
2013-07-25 14:45:00,74.3,53.9,30.07,West,270,6.0,14.0,49,0.00,OVC,,0.15,760.4,WeatherDisplay:10.37,2013-07-25 04:45:00,
2013-07-25 14:50:00,73.6,54.4,30.07,West,270,8.0,13.0,51,0.00,OVC,,0.15,696.5,WeatherDisplay:10.37,2013-07-25 04:50:00,
2013-07-25 14:55:00,73.5,54.8,30.07,West,270,7.0,11.0,52,0.00,OVC,,0.15,783.4,WeatherDisplay:10.37,2013-07-25 04:55:00,
2013-07-25 15:00:00,73.9,53.5,30.07,West,270,9.0,15.0,49,0.00,OVC,,0.15,1028.6,WeatherDisplay:10.37,2013-07-25 05:00:00,
2013-07-25 15:05:00,75.2,54.2,30.07,West,270,10.0,13.0,48,0.00,OVC,,0.15,1056.5,WeatherDisplay:10.37,2013-07-25 05:05:00,
2013-07-25 15:10:00,74.3,53.4,30.07,West,270,9.0,15.0,48,0.00,OVC,,0.15,525.1,WeatherDisplay:10.37,2013-07-25 05:10:00,
2013-07-25 15:15:00,72.8,53.6,30.07,West,270,7.0,16.0,51,0.00,OVC,,0.15,658.3,WeatherDisplay:10.37,2013-07-25 05:15:00,
2013-07-25 15:20:00,72.5,53.3,30.07,West,270,6.0,13.0,51,0.00,OVC,,0.15,508.7,WeatherDisplay:10.37,2013-07-25 05:20:00,
2013-07-25 15:25:00,72.2,53.6,30.07,West,270,9.0,16.0,52,0.00,OVC,,0.15,510.3,WeatherDisplay:10.37,2013-07-25 05:25:00,
2013-07-25 15:30:00,71.8,53.2,30.07,West,270,10.0,15.0,52,0.00,OVC,,0.15,368.9,WeatherDisplay:10.37,2013-07-25 05:30:00,
2013-07-25 15:40:00,71.2,53.2,30.07,West,270,8.0,13.0,53,0.00,OVC,,0.15,406.1,WeatherDisplay:10.37,2013-07-25 05:40:00,
2013-07-25 15:45:00,71.3,53.3,30.08,West,270,6.0,14.0,53,0.00,OVC,,0.15,441.6,WeatherDisplay:10.37,2013-07-25 05:45:00,
2013-07-25 15:50:00,71.8,52.7,30.07,West,270,12.0,15.0,51,0.00,OVC,,0.15,338.0,WeatherDisplay:10.37,2013-07-25 05:50:00,
2013-07-25 15:55:00,71.2,53.2,30.07,West,270,6.0,15.0,53,0.00,OVC,,0.15,741.3,WeatherDisplay:10.37,2013-07-25 05:55:00,
2013-07-25 16:00:00,72.0,52.8,30.07,West,270,6.0,13.0,51,0.00,OVC,,0.15,499.3,WeatherDisplay:10.37,2013-07-25 06:00:00,
2013-07-25 16:05:00,72.0,52.8,30.07,West,270,10.0,15.0,51,0.00,OVC,,0.15,520.9,WeatherDisplay:10.37,2013-07-25 06:05:00,
2013-07-25 16:10:00,71.4,53.4,30.07,West,270,8.0,15.0,53,0.00,OVC,,0.15,650.1,WeatherDisplay:10.37,2013-07-25 06:10:00,
2013-07-25 16:15:00,71.2,53.2,30.08,West,270,9.0,14.0,53,0.00,OVC,,0.15,235.4,WeatherDisplay:10.37,2013-07-25 06:15:00,
2013-07-25 16:20:00,70.9,52.9,30.08,West,270,8.0,14.0,53,0.00,OVC,,0.15,242.4,WeatherDisplay:10.37,2013-07-25 06:20:00,
2013-07-25 16:25:00,70.3,52.9,30.08,West,270,9.0,13.0,54,0.00,OVC,,0.15,192.4,WeatherDisplay:10.37,2013-07-25 06:25:00,
2013-07-25 16:30:00,69.8,52.9,30.08,West,270,9.0,13.0,55,0.00,OVC,,0.15,186.6,WeatherDisplay:10.37,2013-07-25 06:30:00,
2013-07-25 16:35:00,70.2,53.2,30.08,West,270,9.0,13.0,55,0.00,OVC,,0.15,446.4,WeatherDisplay:10.37,2013-07-25 06:35:00,
2013-07-25 16:40:00,70.4,53.0,30.08,West,270,12.0,15.0,54,0.00,OVC,,0.15,355.3,WeatherDisplay:10.37,2013-07-25 06:40:00,
2013-07-25 16:45:00,71.4,53.3,30.08,West,270,10.0,15.0,53,0.00,OVC,,0.15,327.2,WeatherDisplay:10.37,2013-07-25 06:45:00,
2013-07-25 16:50:00,70.7,53.2,30.08,West,270,10.0,14.0,54,0.00,OVC,,0.15,311.2,WeatherDisplay:10.37,2013-07-25 06:50:00,
2013-07-25 16:55:00,70.2,53.2,30.08,West,270,6.0,13.0,55,0.00,OVC,,0.15,252.7,WeatherDisplay:10.37,2013-07-25 06:55:00,
2013-07-25 17:00:00,69.8,52.9,30.08,West,270,10.0,17.0,55,0.00,CLR,,0.15,219.6,WeatherDisplay:10.37,2013-07-25 07:00:00,
2013-07-25 17:05:00,69.5,53.6,30.09,West,270,9.0,16.0,57,0.00,CLR,,0.15,239.6,WeatherDisplay:10.37,2013-07-25 07:05:00,
2013-07-25 17:10:00,69.5,54.1,30.09,West,270,8.0,15.0,58,0.00,CLR,,0.15,195.6,WeatherDisplay:10.37,2013-07-25 07:10:00,
2013-07-25 17:15:00,69.3,54.8,30.09,West,270,8.0,13.0,60,0.00,CLR,,0.15,178.6,WeatherDisplay:10.37,2013-07-25 07:15:00,
2013-07-25 17:20:00,69.4,54.9,30.10,West,270,7.0,13.0,60,0.00,CLR,,0.15,153.3,WeatherDisplay:10.37,2013-07-25 07:20:00,
2013-07-25 17:25:00,69.1,54.7,30.10,West,270,10.0,16.0,60,0.00,CLR,,0.15,63.5,WeatherDisplay:10.37,2013-07-25 07:25:00,
2013-07-25 17:30:00,68.2,55.1,30.10,West,270,7.0,15.0,63,0.00,CLR,,0.15,56.5,WeatherDisplay:10.37,2013-07-25 07:30:00,
2013-07-25 17:35:00,67.8,55.2,30.10,West,270,5.0,11.0,64,0.00,CLR,,0.15,43.8,WeatherDisplay:10.37,2013-07-25 07:35:00,
2013-07-25 17:40:00,67.4,55.3,30.10,West,270,3.0,11.0,65,0.00,CLR,,0.15,40.2,WeatherDisplay:10.37,2013-07-25 07:40:00,
2013-07-25 17:50:00,66.7,55.0,30.11,West,270,6.0,8.0,66,0.00,CLR,,0.15,22.7,WeatherDisplay:10.37,2013-07-25 07:50:00,
2013-07-25 17:55:00,66.6,54.8,30.11,West,270,5.0,10.0,66,0.00,CLR,,0.15,13.9,WeatherDisplay:10.37,2013-07-25 07:55:00,
2013-07-25 18:00:00,66.2,54.9,30.11,West,270,5.0,8.0,67,0.00,CLR,,0.15,6.5,WeatherDisplay:10.37,2013-07-25 08:00:00,
2013-07-25 18:05:00,65.8,55.0,30.11,West,270,7.0,9.0,68,0.00,CLR,,0.15,2.5,WeatherDisplay:10.37,2013-07-25 08:05:00,
2013-07-25 18:10:00,65.7,55.2,30.11,West,270,3.0,9.0,69,0.00,CLR,,0.15,0.0,WeatherDisplay:10.37,2013-07-25 08:10:00,
2013-07-25 18:15:00,65.4,55.3,30.11,West,270,5.0,7.0,70,0.00,CLR,,0.15,0.0,WeatherDisplay:10.37,2013-07-25 08:15:00,
2013-07-25 18:20:00,65.1,55.5,30.11,West,270,3.0,6.0,71,0.00,CLR,,0.15,0.0,WeatherDisplay:10.37,2013-07-25 08:20:00,
2013-07-25 18:25:00,64.3,55.1,30.12,West,270,3.0,6.0,72,0.00,CLR,,0.15,0.0,WeatherDisplay:10.37,2013-07-25 08:25:00,
2013-07-25 18:30:00,64.0,55.2,30.12,West,270,2.0,5.0,73,0.00,CLR,,0.15,0.0,WeatherDisplay:10.37,2013-07-25 08:30:00,
2013-07-25 18:35:00,63.5,54.7,30.12,West,270,2.0,4.0,73,0.00,CLR,,0.15,0.0,WeatherDisplay:10.37,2013-07-25 08:35:00,
2013-07-25 18:40:00,63.3,54.9,30.12,West,270,3.0,6.0,74,0.00,CLR,,0.15,0.0,WeatherDisplay:10.37,2013-07-25 08:40:00,
2013-07-25 18:45:00,63.5,55.1,30.13,West,270,5.0,7.0,74,0.00,CLR,,0.15,0.0,WeatherDisplay:10.37,2013-07-25 08:45:00,
2013-07-25 18:50:00,63.5,55.4,30.13,West,270,7.0,8.0,75,0.00,CLR,,0.15,0.0,WeatherDisplay:10.37,2013-07-25 08:50:00,
2013-07-25 18:55:00,63.3,55.3,30.12,West,270,3.0,7.0,75,0.00,CLR,,0.15,0.0,WeatherDisplay:10.37,2013-07-25 08:55:00,
2013-07-25 19:00:00,63.1,55.4,30.12,West,270,5.0,6.0,76,0.00,CLR,,0.15,0.0,WeatherDisplay:10.37,2013-07-25 09:00:00,
2013-07-25 19:05:00,62.8,55.1,30.13,West,270,2.0,6.0,76,0.00,CLR,,0.15,0.0,WeatherDisplay:10.37,2013-07-25 09:05:00,
2013-07-25 19:10:00,62.4,55.5,30.13,West,270,2.0,4.0,78,0.00,CLR,,0.15,0.0,WeatherDisplay:10.37,2013-07-25 09:10:00,
2013-07-25 19:15:00,62.3,55.3,30.13,West,270,1.0,4.0,78,0.00,CLR,,0.15,0.0,WeatherDisplay:10.37,2013-07-25 09:15:00,
2013-07-25 19:20:00,62.0,55.4,30.13,West,270,1.0,3.0,79,0.00,CLR,,0.15,0.0,WeatherDisplay:10.37,2013-07-25 09:20:00,
2013-07-25 19:25:00,61.5,55.3,30.14,West,270,0.0,2.0,80,0.00,CLR,,0.15,0.0,WeatherDisplay:10.37,2013-07-25 09:25:00,
2013-07-25 19:30:00,61.2,54.9,30.14,West,270,0.0,0.0,80,0.00,CLR,,0.15,0.0,WeatherDisplay:10.37,2013-07-25 09:30:00,
2013-07-25 19:35:00,61.0,55.4,30.14,West,270,3.0,5.0,82,0.00,CLR,,0.15,0.0,WeatherDisplay:10.37,2013-07-25 09:35:00,
2013-07-25 19:40:00,61.2,55.6,30.14,West,270,2.0,4.0,82,0.00,CLR,,0.15,0.0,WeatherDisplay:10.37,2013-07-25 09:40:00,
2013-07-25 19:45:00,61.2,55.6,30.14,West,270,2.0,3.0,82,0.00,CLR,,0.15,0.0,WeatherDisplay:10.37,2013-07-25 09:45:00,
2013-07-25 19:50:00,61.0,55.4,30.14,West,270,2.0,5.0,82,0.00,CLR,,0.15,0.0,WeatherDisplay:10.37,2013-07-25 09:50:00,
2013-07-25 19:55:00,61.2,55.6,30.15,West,270,5.0,6.0,82,0.00,CLR,,0.15,0.0,WeatherDisplay:10.37,2013-07-25 09:55:00,
2013-07-25 20:00:00,61.3,55.8,30.15,West,270,2.0,5.0,82,0.00,CLR,,0.15,0.0,WeatherDisplay:10.37,2013-07-25 10:00:00,
2013-07-25 20:05:00,61.5,56.0,30.15,West,270,1.0,5.0,82,0.00,CLR,,0.15,0.0,WeatherDisplay:10.37,2013-07-25 10:05:00,
2013-07-25 20:10:00,61.3,55.8,30.15,West,270,1.0,3.0,82,0.00,CLR,,0.15,0.0,WeatherDisplay:10.37,2013-07-25 10:10:00,
2013-07-25 20:15:00,61.2,56.0,30.15,West,270,0.0,1.0,83,0.00,CLR,,0.15,0.0,WeatherDisplay:10.37,2013-07-25 10:15:00,
2013-07-25 20:20:00,60.8,55.9,30.15,West,270,0.0,0.0,84,0.00,CLR,,0.15,0.0,WeatherDisplay:10.37,2013-07-25 10:20:00,
2013-07-25 20:25:00,60.4,56.2,30.15,West,270,0.0,0.0,86,0.00,CLR,,0.15,0.0,WeatherDisplay:10.37,2013-07-25 10:25:00,
2013-07-25 20:30:00,60.1,55.9,30.15,West,270,0.0,0.0,86,0.00,CLR,,0.15,0.0,WeatherDisplay:10.37,2013-07-25 10:30:00,
2013-07-25 20:40:00,59.7,55.5,30.15,West,270,0.0,0.0,86,0.00,CLR,,0.15,0.0,WeatherDisplay:10.37,2013-07-25 10:40:00,
2013-07-25 20:45:00,59.5,55.3,30.15,West,270,0.0,0.0,86,0.00,CLR,,0.15,0.0,WeatherDisplay:10.37,2013-07-25 10:45:00,
2013-07-25 20:50:00,59.4,55.2,30.15,West,270,0.0,0.0,86,0.00,CLR,,0.15,0.0,WeatherDisplay:10.37,2013-07-25 10:50:00,
2013-07-25 20:55:00,59.5,55.7,30.15,West,270,0.0,0.0,87,0.00,CLR,,0.15,0.0,WeatherDisplay:10.37,2013-07-25 10:55:00,
2013-07-25 21:00:00,60.0,55.8,30.15,West,270,1.0,4.0,86,0.00,CLR,,0.15,0.0,WeatherDisplay:10.37,2013-07-25 11:00:00,
2013-07-25 21:05:00,60.3,56.1,30.15,West,270,0.0,3.0,86,0.00,CLR,,0.15,0.0,WeatherDisplay:10.37,2013-07-25 11:05:00,
2013-07-25 21:10:00,60.4,56.2,30.15,West,270,2.0,4.0,86,0.00,CLR,,0.15,0.0,WeatherDisplay:10.37,2013-07-25 11:10:00,
2013-07-25 21:15:00,60.6,56.1,30.15,West,270,2.0,4.0,85,0.00,CLR,,0.15,0.0,WeatherDisplay:10.37,2013-07-25 11:15:00,
2013-07-25 21:20:00,60.8,55.9,30.15,West,270,2.0,4.0,84,0.00,CLR,,0.15,0.0,WeatherDisplay:10.37,2013-07-25 11:20:00,
2013-07-25 21:25:00,61.0,56.1,30.16,West,270,3.0,5.0,84,0.00,CLR,,0.15,0.0,WeatherDisplay:10.37,2013-07-25 11:25:00,
2013-07-25 21:30:00,61.2,56.3,30.16,West,270,1.0,5.0,84,0.00,CLR,,0.15,0.0,WeatherDisplay:10.37,2013-07-25 11:30:00,
2013-07-25 21:35:00,61.0,56.1,30.16,West,270,0.0,0.0,84,0.00,CLR,,0.15,0.0,WeatherDisplay:10.37,2013-07-25 11:35:00,
2013-07-25 21:40:00,59.7,54.8,30.16,West,270,2.0,4.0,84,0.00,CLR,,0.15,0.0,WeatherDisplay:10.37,2013-07-25 11:40:00,
2013-07-25 21:45:00,58.7,54.5,30.17,West,270,1.0,3.0,86,0.00,CLR,,0.15,0.0,WeatherDisplay:10.37,2013-07-25 11:45:00,
2013-07-25 21:50:00,58.1,54.2,30.16,West,270,1.0,2.0,87,0.00,CLR,,0.15,0.0,WeatherDisplay:10.37,2013-07-25 11:50:00,
2013-07-25 21:55:00,57.6,54.1,30.16,West,270,0.0,2.0,88,0.00,CLR,,0.15,0.0,WeatherDisplay:10.37,2013-07-25 11:55:00,
2013-07-25 22:00:00,57.4,53.9,30.16,West,270,0.0,0.0,88,0.00,CLR,,0.15,0.0,WeatherDisplay:10.37,2013-07-25 12:00:00,
2013-07-25 22:05:00,57.2,53.7,30.16,West,270,0.0,0.0,88,0.00,CLR,,0.15,0.0,WeatherDisplay:10.37,2013-07-25 12:05:00,
2013-07-25 22:10:00,57.2,54.0,30.15,West,270,0.0,0.0,89,0.00,CLR,,0.15,0.0,WeatherDisplay:10.37,2013-07-25 12:10:00,
2013-07-25 22:15:00,57.6,54.7,30.15,West,270,1.0,2.0,90,0.00,CLR,,0.15,0.0,WeatherDisplay:10.37,2013-07-25 12:15:00,
2013-07-25 22:20:00,57.6,55.3,30.15,West,270,0.0,2.0,92,0.00,CLR,,0.15,0.0,WeatherDisplay:10.37,2013-07-25 12:20:00,
2013-07-25 22:25:00,57.4,55.1,30.15,West,270,0.0,0.0,92,0.00,CLR,,0.15,0.0,WeatherDisplay:10.37,2013-07-25 12:25:00,
2013-07-25 22:30:00,57.4,55.1,30.15,West,270,0.0,0.0,92,0.00,CLR,,0.15,0.0,WeatherDisplay:10.37,2013-07-25 12:30:00,
2013-07-25 22:40:00,56.7,55.0,30.15,West,270,2.0,4.0,94,0.00,CLR,,0.15,0.0,WeatherDisplay:10.37,2013-07-25 12:40:00,
2013-07-25 22:45:00,56.7,55.0,30.15,West,270,1.0,3.0,94,0.00,CLR,,0.15,0.0,WeatherDisplay:10.37,2013-07-25 12:45:00,
2013-07-25 22:50:00,56.5,54.8,30.15,West,270,0.0,1.0,94,0.00,CLR,,0.15,0.0,WeatherDisplay:10.37,2013-07-25 12:50:00,
2013-07-25 22:55:00,56.7,55.2,30.15,West,270,0.0,1.0,95,0.00,CLR,,0.15,0.0,WeatherDisplay:10.37,2013-07-25 12:55:00,
2013-07-25 23:00:00,56.8,55.4,30.15,West,270,0.0,0.0,95,0.00,CLR,,0.15,0.0,WeatherDisplay:10.37,2013-07-25 13:00:00,
2013-07-25 23:05:00,57.0,55.6,30.14,West,270,0.0,0.0,95,0.00,CLR,,0.15,0.0,WeatherDisplay:10.37,2013-07-25 13:05:00,
2013-07-25 23:10:00,56.9,55.5,30.14,West,270,0.0,0.0,95,0.00,CLR,,0.15,0.0,WeatherDisplay:10.37,2013-07-25 13:10:00,
2013-07-25 23:15:00,56.5,55.1,30.15,West,270,0.0,0.0,95,0.00,CLR,,0.15,0.0,WeatherDisplay:10.37,2013-07-25 13:15:00,
2013-07-25 23:20:00,56.3,54.9,30.14,West,270,0.0,0.0,95,0.00,CLR,,0.15,0.0,WeatherDisplay:10.37,2013-07-25 13:20:00,
2013-07-25 23:25:00,56.3,54.9,30.14,West,270,0.0,0.0,95,0.00,CLR,,0.15,0.0,WeatherDisplay:10.37,2013-07-25 13:25:00,
2013-07-25 23:30:00,55.9,54.5,30.14,West,270,0.0,0.0,95,0.00,CLR,,0.15,0.0,WeatherDisplay:10.37,2013-07-25 13:30:00,
2013-07-25 23:35:00,55.5,54.1,30.14,West,270,0.0,0.0,95,0.00,CLR,,0.15,0.0,WeatherDisplay:10.37,2013-07-25 13:35:00,
2013-07-25 23:40:00,55.5,54.4,30.14,West,270,0.0,0.0,96,0.00,CLR,,0.15,0.0,WeatherDisplay:10.37,2013-07-25 13:40:00,
2013-07-25 23:45:00,55.6,54.5,30.14,West,270,0.0,0.0,96,0.00,CLR,,0.15,0.0,WeatherDisplay:10.37,2013-07-25 13:45:00,
2013-07-25 23:50:00,55.2,54.1,30.14,West,270,0.0,0.0,96,0.00,CLR,,0.15,0.0,WeatherDisplay:10.37,2013-07-25 13:50:00,
2013-07-25 23:55:00,54.9,53.7,30.14,West,270,0.0,0.0,96,0.00,CLR,,0.15,0.0,WeatherDisplay:10.37,2013-07-25 13:55:00,